Погода в Нижней Иволге

Россия / Республика Бурятия     51°46′19″N   107°25′12″E
темп.,
°C
ветер,
м/с
пор.,
м/с
влажн.,
%
обл.,
%
осадки,
мм/ч
давл.,
гПа
погр.,
м
21 июня, пн
пн2123:00+16всв22545 0.0 100529
02:00+14всв226314 0.0 100622
05:00+12всв22741 0.0 100729
08:00+18всв24515 0.0 1007476
11:00+26в35305 0.0 10041628
14:00+30ю432427 0.0 10023157
17:00+30вюв332426 0.0 10012951
20:00+25в223596 0.0 100126
22 июня, вт
вт2223:00+19св224797 0.0 100321
02:00+16ссв2257100 0.1 100520
05:00+12с2379100 0.1 100874
08:00+17с247398 0.1 1008449
11:00+21ссз4458100 0.0 1007859
14:00+24ссз444458 0.0 10061087
17:00+22с675092 0.1 1005550
20:00+17сз347374 0.5 1008244
23 июня, ср
ср2323:00+12ссз3489100 0.5 1009107
02:00+11сз11915 0.7 100918
05:00+10ссв12924 0.0 100926
08:00+16ссз01703 0.0 1009341
11:00+23юз12495 0.0 1007843
14:00+28з343814 0.0 10041713
17:00+28зюз123937 0.0 1004948
20:00+25з23485 0.0 100469
24 июня, чт
чт2423:00+18ссз11697 0.0 100614
02:00+16ссз018063 0.2 100719
05:00+14с2284100 0.0 100729
08:00+19ссв235992 0.0 1006333
11:00+26ссв234362 0.3 1004973
14:00+30ссз333556 0.4 10011828
17:00+20ссв3677100 2.1 1002290
20:00+20св1178100 2.4 100333
25 июня, пт
пт2523:00+16с2293100 0.4 100555
02:00+15с2295100 0.6 100562
05:00+15ссв139697 0.1 1006212
08:00+16ссз1291100 0.3 1007362
11:00+17с2286100 0.7 1007471
14:00+15с2391100 5.8 1007298
17:00+20ссв237098 0.0 1006735
20:00+19ссв12723 0.0 100663